| time (UTC) | temp C | wind direction | speed KPH | gust KPH | rain 1hr cm | rain 24hr cm | rain mn cm | humidity % | barometer mb |
| 20260508134244 | 17 | 309 | 4.8 | 8.0 | 0.00 | 0.43 | 0.43 | 83 | 1015.4 |
| 20260508134012 | 17 | 323 | 3.2 | 8.0 | 0.00 | 0.43 | 0.43 | 83 | 1015.6 |
| 20260508133245 | 17 | 306 | 3.2 | 8.0 | 0.00 | 0.43 | 0.43 | 84 | 1015.6 |
| 20260508132743 | 17 | 305 | 4.8 | 11.3 | 0.00 | 0.43 | 0.43 | 85 | 1015.7 |
| 20260508132242 | 17 | 280 | 4.8 | 11.3 | 0.00 | 0.43 | 0.43 | 85 | 1015.6 |
| 20260508131743 | 17 | 300 | 4.8 | 9.7 | 0.00 | 0.43 | 0.43 | 87 | 1015.8 |
| 20260508131241 | 17 | 278 | 4.8 | 9.7 | 0.00 | 0.43 | 0.43 | 87 | 1015.8 |
| 20260508130738 | 17 | 292 | 3.2 | 9.7 | 0.00 | 0.43 | 0.43 | 88 | 1015.8 |
| 20260508130237 | 16 | 307 | 4.8 | 9.7 | 0.00 | 0.43 | 0.43 | 88 | 1015.9 |
| 20260508125735 | 16 | 256 | 4.8 | 9.7 | 0.00 | 0.43 | 0.43 | 88 | 1016.0 |
| 20260508125228 | 16 | 289 | 3.2 | 6.4 | 0.00 | 0.43 | 0.43 | 89 | 1016.0 |
| 20260508124722 | 16 | 282 | 1.6 | 6.4 | 0.00 | 0.43 | 0.43 | 89 | 1016.1 |
| 20260508124216 | 16 | 271 | 1.6 | 4.8 | 0.00 | 0.43 | 0.43 | 90 | 1016.2 |
| 20260508123935 | 16 | 257 | 1.6 | 4.8 | 0.03 | 0.43 | 0.43 | 90 | 1016.2 |
| 20260508123204 | 16 | 246 | 1.6 | 4.8 | 0.05 | 0.43 | 0.43 | 90 | 1016.2 |
| 20260508122923 | 16 | 259 | 1.6 | 4.8 | 0.08 | 0.43 | 0.43 | 90 | 1016.2 |
| 20260508122152 | 16 | 259 | 1.6 | 4.8 | 0.10 | 0.43 | 0.43 | 91 | 1016.3 |
| 20260508121647 | 16 | 252 | 3.2 | 4.8 | 0.13 | 0.43 | 0.43 | 91 | 1016.4 |
| 20260508121145 | 16 | 259 | 1.6 | 4.8 | 0.13 | 0.43 | 0.43 | 90 | 1016.3 |
| 20260508120630 | 16 | 278 | 1.6 | 4.8 | 0.15 | 0.43 | 0.43 | 90 | 1016.5 |
| 20260508120607 | 16 | 295 | 1.6 | 4.8 | 0.18 | 0.43 | 0.43 | 90 | 1016.5 |
| 20260508115618 | 17 | 301 | 1.6 | 4.8 | 0.20 | 0.43 | 0.43 | 90 | 1016.6 |
| 20260508115112 | 17 | 289 | 1.6 | 4.8 | 0.23 | 0.43 | 0.43 | 89 | 1016.7 |
| 20260508114607 | 17 | 217 | 0.0 | 3.2 | 0.25 | 0.43 | 0.43 | 89 | 1016.9 |
| 20260508114320 | 17 | 217 | 0.0 | 1.6 | 0.25 | 0.41 | 0.43 | 89 | 1017.0 |
| 20260508113554 | 17 | 217 | 0.0 | 1.6 | 0.28 | 0.41 | 0.41 | 88 | 1017.2 |
| 20260508113048 | 17 | 217 | 0.0 | 1.6 | 0.25 | 0.38 | 0.38 | 87 | 1017.3 |
| 20260508112542 | 17 | 217 | 0.0 | 1.6 | 0.23 | 0.33 | 0.33 | 87 | 1017.3 |
| 20260508112035 | 17 | 217 | 0.0 | 1.6 | 0.23 | 0.33 | 0.33 | 87 | 1017.4 |
| 20260508111757 | 17 | 217 | 0.0 | 1.6 | 0.20 | 0.30 | 0.30 | 87 | 1017.4 |
| 20260508111024 | 17 | 217 | 0.0 | 1.6 | 0.20 | 0.28 | 0.30 | 87 | 1017.4 |
| 20260508110518 | 17 | 217 | 0.0 | 0.0 | 0.18 | 0.25 | 0.28 | 89 | 1017.5 |
| 20260508110012 | 17 | 217 | 0.0 | 1.6 | 0.18 | 0.23 | 0.23 | 89 | 1017.6 |
| 20260508105506 | 17 | 217 | 0.0 | 1.6 | 0.15 | 0.20 | 0.23 | 89 | 1017.6 |
| 20260508105223 | 17 | 217 | 0.0 | 3.2 | 0.15 | 0.18 | 0.18 | 89 | 1017.7 |
| 20260508104454 | 17 | 217 | 0.0 | 3.2 | 0.13 | 0.18 | 0.15 | 89 | 1017.8 |
| 20260508103947 | 17 | 217 | 0.0 | 3.2 | 0.13 | 0.15 | 0.15 | 90 | 1017.9 |
| 20260508103442 | 17 | 217 | 0.0 | 3.2 | 0.10 | 0.15 | 0.13 | 90 | 1017.9 |
| 20260508102937 | 17 | 217 | 1.6 | 4.8 | 0.13 | 0.15 | 0.13 | 89 | 1018.0 |
| 20260508102430 | 17 | 217 | 1.6 | 4.8 | 0.13 | 0.15 | 0.13 | 89 | 1018.1 |
| 20260508102148 | 17 | 217 | 1.6 | 3.2 | 0.10 | 0.13 | 0.10 | 88 | 1018.2 |
| 20260508101418 | 17 | 217 | 0.0 | 3.2 | 0.08 | 0.10 | 0.08 | 88 | 1018.1 |
| 20260508100911 | 17 | 217 | 0.0 | 1.6 | 0.08 | 0.10 | 0.08 | 88 | 1018.1 |
| 20260508100406 | 17 | 217 | 0.0 | 4.8 | 0.08 | 0.10 | 0.08 | 87 | 1018.3 |
| 20260508095900 | 17 | 217 | 1.6 | 4.8 | 0.05 | 0.08 | 0.05 | 88 | 1018.5 |
| 20260508095357 | 17 | 143 | 1.6 | 4.8 | 0.05 | 0.08 | 0.05 | 87 | 1018.7 |
| 20260508094847 | 18 | 224 | 0.0 | 3.2 | 0.05 | 0.05 | 0.05 | 87 | 1018.7 |
| 20260508094342 | 18 | 224 | 1.6 | 6.4 | 0.05 | 0.05 | 0.05 | 88 | 1018.7 |
| 20260508093836 | 18 | 222 | 1.6 | 6.4 | 0.03 | 0.05 | 0.03 | 87 | 1018.7 |
| 20260508093330 | 17 | 221 | 1.6 | 4.8 | 0.00 | 0.03 | 0.03 | 87 | 1018.8 |
| 20260508092824 | 17 | 206 | 1.6 | 4.8 | 0.00 | 0.03 | 0.00 | 86 | 1018.7 |
| 20260508092317 | 17 | 259 | 1.6 | 6.4 | 0.00 | 0.03 | 0.00 | 86 | 1018.6 |
| 20260508091812 | 17 | 214 | 3.2 | 8.0 | 0.00 | 0.03 | 0.00 | 85 | 1018.6 |
| 20260508091306 | 17 | 203 | 4.8 | 9.7 | 0.00 | 0.03 | 0.00 | 85 | 1018.5 |
| 20260508090800 | 18 | 211 | 3.2 | 9.7 | 0.00 | 0.03 | 0.00 | 84 | 1018.5 |
| 20260508090257 | 18 | 253 | 3.2 | 8.0 | 0.00 | 0.03 | 0.00 | 83 | 1018.4 |
| 20260508090035 | 18 | 221 | 1.6 | 8.0 | 0.00 | 0.03 | 0.00 | 82 | 1018.3 |
| 20260508085254 | 18 | 224 | 1.6 | 3.2 | 0.00 | 0.03 | 0.00 | 81 | 1018.1 |
| 20260508084754 | 18 | 224 | 0.0 | 3.2 | 0.00 | 0.03 | 0.00 | 81 | 1018.0 |
| 20260508084254 | 18 | 209 | 1.6 | 4.8 | 0.00 | 0.03 | 0.00 | 81 | 1018.0 |
| 20260508084017 | 18 | 209 | 3.2 | 11.3 | 0.00 | 0.03 | 0.00 | 81 | 1018.0 |
| 20260508083513 | 18 | 165 | 3.2 | 11.3 | 0.00 | 0.03 | 0.00 | 80 | 1018.0 |
| 20260508082754 | 18 | 272 | 1.6 | 8.0 | 0.00 | 0.03 | 0.00 | 78 | 1017.9 |
| 20260508082255 | 18 | 244 | 0.0 | 8.0 | 0.00 | 0.03 | 0.00 | 76 | 1017.8 |
| 20260508081753 | 18 | 258 | 1.6 | 8.0 | 0.00 | 0.03 | 0.00 | 76 | 1017.7 |
| 20260508081516 | 18 | 258 | 3.2 | 9.7 | 0.00 | 0.03 | 0.00 | 76 | 1017.6 |
| 20260508080749 | 18 | 255 | 1.6 | 9.7 | 0.00 | 0.03 | 0.00 | 75 | 1017.5 |
| 20260508080247 | 19 | 105 | 1.6 | 4.8 | 0.00 | 0.03 | 0.00 | 71 | 1017.4 |
| 20260508075746 | 19 | 105 | 1.6 | 4.8 | 0.00 | 0.03 | 0.00 | 72 | 1017.2 |
| 20260508075503 | 18 | 105 | 1.6 | 8.0 | 0.00 | 0.03 | 0.00 | 73 | 1017.1 |
| 20260508074739 | 18 | 106 | 3.2 | 8.0 | 0.00 | 0.03 | 0.00 | 74 | 1017.1 |
| 20260508074240 | 18 | 68 | 3.2 | 9.7 | 0.00 | 0.03 | 0.00 | 75 | 1017.1 |
| 20260508073741 | 18 | 93 | 3.2 | 9.7 | 0.00 | 0.03 | 0.00 | 75 | 1017.2 |
| 20260508073240 | 18 | 101 | 3.2 | 9.7 | 0.00 | 0.03 | 0.00 | 76 | 1017.2 |
| 20260508072738 | 18 | 117 | 4.8 | 9.7 | 0.00 | 0.03 | 0.00 | 76 | 1017.2 |
| 20260508072236 | 18 | 90 | 3.2 | 6.4 | 0.00 | 0.03 | 0.00 | 76 | 1017.3 |
| 20260508071737 | 18 | 79 | 1.6 | 3.2 | 0.00 | 0.03 | 0.00 | 76 | 1017.5 |
| 20260508071715 | 18 | 134 | 0.0 | 3.2 | 0.00 | 0.03 | 0.00 | 77 | 1017.7 |
| 20260508070735 | 18 | 134 | 1.6 | 4.8 | 0.00 | 0.03 | 0.00 | 77 | 1017.9 |
| 20260508070454 | 18 | 143 | 1.6 | 4.8 | 0.00 | 0.03 | 0.00 | 78 | 1017.9 |
| 20260508065733 | 18 | 141 | 0.0 | 4.8 | 0.00 | 0.03 | 0.00 | 78 | 1018.0 |
| 20260508065458 | 17 | 94 | 0.0 | 4.8 | 0.00 | 0.03 | 0.00 | 79 | 1017.8 |
| 20260508064727 | 17 | 94 | 0.0 | 4.8 | 0.00 | 0.03 | 0.00 | 79 | 1017.8 |
| 20260508064228 | 17 | 124 | 1.6 | 4.8 | 0.00 | 0.03 | 0.00 | 80 | 1017.7 |
| 20260508063731 | 17 | 138 | 1.6 | 6.4 | 0.00 | 0.03 | 0.00 | 79 | 1017.7 |
| 20260508063230 | 17 | 216 | 1.6 | 6.4 | 0.00 | 0.03 | 0.00 | 79 | 1017.7 |
| 20260508062730 | 17 | 158 | 1.6 | 4.8 | 0.00 | 0.03 | 0.00 | 79 | 1017.6 |
| 20260508062226 | 17 | 163 | 1.6 | 4.8 | 0.00 | 0.03 | 0.00 | 79 | 1017.5 |
| 20260508061727 | 17 | 153 | 0.0 | 3.2 | 0.00 | 0.03 | 0.00 | 78 | 1017.5 |
| 20260508061226 | 17 | 212 | 0.0 | 3.2 | 0.00 | 0.03 | 0.00 | 79 | 1017.3 |
| 20260508060952 | 17 | 212 | 1.6 | 4.8 | 0.00 | 0.03 | 0.00 | 80 | 1017.2 |
| 20260508060225 | 17 | 212 | 1.6 | 4.8 | 0.00 | 0.03 | 0.00 | 81 | 1017.2 |
| 20260508055725 | 17 | 217 | 0.0 | 3.2 | 0.00 | 0.03 | 0.00 | 81 | 1017.2 |
| 20260508055714 | 17 | 101 | 0.0 | 1.6 | 0.00 | 0.03 | 0.00 | 82 | 1017.0 |
| 20260508054725 | 17 | 101 | 0.0 | 3.2 | 0.00 | 0.03 | 0.00 | 82 | 1016.7 |
| 20260508054225 | 16 | 101 | 0.0 | 3.2 | 0.00 | 0.03 | 0.00 | 82 | 1016.6 |
| 20260508053725 | 16 | 101 | 0.0 | 1.6 | 0.00 | 0.03 | 0.00 | 82 | 1016.6 |
| 20260508053225 | 16 | 101 | 1.6 | 3.2 | 0.00 | 0.03 | 0.00 | 83 | 1016.6 |
| 20260508052726 | 16 | 101 | 1.6 | 3.2 | 0.00 | 0.03 | 0.00 | 83 | 1016.6 |
| 20260508052226 | 16 | 101 | 3.2 | 3.2 | 0.00 | 0.03 | 0.00 | 83 | 1016.6 |
| 20260508051945 | 16 | 101 | 1.6 | 4.8 | 0.00 | 0.03 | 0.00 | 83 | 1016.6 |
| 20260508051226 | 16 | 101 | 3.2 | 4.8 | 0.00 | 0.03 | 0.00 | 83 | 1016.7 |
| 20260508050725 | 16 | 101 | 3.2 | 4.8 | 0.00 | 0.03 | 0.00 | 83 | 1016.7 |
| 20260508050226 | 16 | 101 | 1.6 | 4.8 | 0.00 | 0.03 | 0.00 | 83 | 1016.6 |
| 20260508045726 | 16 | 195 | 0.0 | 1.6 | 0.00 | 0.03 | 0.00 | 84 | 1016.6 |
| 20260508045225 | 16 | 195 | 0.0 | 3.2 | 0.00 | 0.03 | 0.00 | 84 | 1016.6 |
| 20260508044724 | 16 | 195 | 0.0 | 4.8 | 0.00 | 0.03 | 0.00 | 84 | 1016.5 |
| 20260508044225 | 16 | 146 | 1.6 | 4.8 | 0.00 | 0.03 | 0.00 | 84 | 1016.5 |
| 20260508043717 | 16 | 228 | 1.6 | 4.8 | 0.00 | 0.03 | 0.00 | 84 | 1016.5 |
| 20260508043211 | 16 | 216 | 0.0 | 3.2 | 0.00 | 0.03 | 0.00 | 84 | 1016.5 |
| 20260508042706 | 16 | 90 | 0.0 | 0.0 | 0.00 | 0.03 | 0.00 | 84 | 1016.3 |
| 20260508042159 | 16 | 90 | 0.0 | 0.0 | 0.00 | 0.03 | 0.00 | 84 | 1016.2 |
| 20260508041657 | 16 | 90 | 0.0 | 0.0 | 0.00 | 0.03 | 0.00 | 84 | 1016.2 |
| 20260508041157 | 16 | 90 | 0.0 | 0.0 | 0.00 | 0.03 | 0.00 | 85 | 1016.1 |
| 20260508040656 | 16 | 90 | 0.0 | 1.6 | 0.00 | 0.03 | 0.00 | 85 | 1016.2 |
| 20260508040155 | 16 | 90 | 0.0 | 3.2 | 0.00 | 0.03 | 0.00 | 84 | 1016.2 |
| 20260508035656 | 16 | 90 | 1.6 | 4.8 | 0.00 | 0.03 | 0.00 | 84 | 1016.2 |
| 20260508035154 | 16 | 90 | 1.6 | 4.8 | 0.00 | 0.03 | 0.00 | 84 | 1016.2 |
| 20260508034651 | 16 | 90 | 0.0 | 3.2 | 0.00 | 0.03 | 0.00 | 84 | 1016.3 |
| 20260508034151 | 16 | 90 | 0.0 | 3.2 | 0.00 | 0.03 | 0.00 | 84 | 1016.4 |
| 20260508033651 | 16 | 90 | 0.0 | 3.2 | 0.00 | 0.03 | 0.00 | 84 | 1016.4 |
| 20260508033150 | 16 | 90 | 0.0 | 1.6 | 0.00 | 0.03 | 0.00 | 84 | 1016.5 |
| 20260508032647 | 15 | 90 | 0.0 | 1.6 | 0.00 | 0.03 | 0.00 | 84 | 1016.5 |
| 20260508032148 | 15 | 90 | 0.0 | 1.6 | 0.00 | 0.03 | 0.00 | 84 | 1016.6 |
| 20260508031647 | 15 | 90 | 0.0 | 1.6 | 0.00 | 0.03 | 0.00 | 84 | 1016.5 |
| 20260508031145 | 15 | 90 | 0.0 | 1.6 | 0.00 | 0.03 | 0.00 | 84 | 1016.4 |
| 20260508030902 | 15 | 90 | 0.0 | 1.6 | 0.00 | 0.03 | 0.00 | 84 | 1016.3 |
| 20260508030144 | 15 | 90 | 0.0 | 1.6 | 0.00 | 0.03 | 0.00 | 84 | 1016.3 |
| 20260508025644 | 15 | 90 | 0.0 | 1.6 | 0.00 | 0.03 | 0.00 | 84 | 1016.3 |
| 20260508025143 | 15 | 90 | 0.0 | 1.6 | 0.00 | 0.03 | 0.00 | 84 | 1016.3 |
| 20260508024642 | 15 | 90 | 0.0 | 0.0 | 0.00 | 0.03 | 0.00 | 83 | 1016.3 |
| 20260508024137 | 16 | 90 | 0.0 | 0.0 | 0.00 | 0.03 | 0.00 | 83 | 1016.3 |
| 20260508023631 | 16 | 90 | 0.0 | 0.0 | 0.00 | 0.03 | 0.00 | 83 | 1016.3 |
| 20260508023125 | 16 | 90 | 0.0 | 0.0 | 0.00 | 0.03 | 0.00 | 83 | 1016.2 |
| 20260508022619 | 16 | 90 | 0.0 | 0.0 | 0.00 | 0.03 | 0.00 | 83 | 1016.1 |
| 20260508022113 | 16 | 90 | 0.0 | 0.0 | 0.00 | 0.03 | 0.00 | 83 | 1016.2 |
| 20260508021607 | 16 | 90 | 0.0 | 0.0 | 0.00 | 0.03 | 0.00 | 83 | 1016.1 |
| 20260508021541 | 16 | 90 | 0.0 | 0.0 | 0.00 | 0.03 | 0.00 | 84 | 1015.9 |
| 20260508020555 | 16 | 90 | 0.0 | 0.0 | 0.00 | 0.03 | 0.00 | 84 | 1016.0 |
| 20260508020049 | 16 | 90 | 0.0 | 0.0 | 0.00 | 0.03 | 0.00 | 83 | 1016.1 |
| 20260508015809 | 16 | 90 | 0.0 | 1.6 | 0.00 | 0.03 | 0.00 | 82 | 1016.0 |
| 20260508015309 | 16 | 90 | 0.0 | 3.2 | 0.00 | 0.03 | 0.00 | 82 | 1016.0 |
| 20260508014546 | 16 | 90 | 0.0 | 3.2 | 0.00 | 0.03 | 0.00 | 82 | 1016.1 |
| 20260508014043 | 16 | 90 | 0.0 | 0.0 | 0.00 | 0.03 | 0.00 | 82 | 1016.1 |
| 20260508013543 | 16 | 90 | 0.0 | 0.0 | 0.00 | 0.03 | 0.00 | 81 | 1016.1 |
| 20260508013043 | 16 | 90 | 0.0 | 0.0 | 0.00 | 0.03 | 0.00 | 81 | 1016.2 |
| 20260508012543 | 16 | 90 | 0.0 | 0.0 | 0.00 | 0.03 | 0.00 | 81 | 1016.3 |
| 20260508012039 | 16 | 90 | 0.0 | 0.0 | 0.00 | 0.03 | 0.00 | 81 | 1016.2 |
| 20260508011539 | 16 | 90 | 0.0 | 0.0 | 0.00 | 0.03 | 0.00 | 81 | 1016.3 |
| 20260508011039 | 16 | 90 | 0.0 | 0.0 | 0.00 | 0.03 | 0.00 | 80 | 1016.4 |
| 20260508010537 | 16 | 90 | 0.0 | 0.0 | 0.00 | 0.03 | 0.00 | 80 | 1016.5 |
| 20260508010035 | 16 | 90 | 0.0 | 0.0 | 0.00 | 0.03 | 0.00 | 81 | 1016.6 |
| 20260508005533 | 16 | 90 | 0.0 | 0.0 | 0.00 | 0.03 | 0.00 | 81 | 1016.5 |
| 20260508005033 | 16 | 90 | 0.0 | 0.0 | 0.00 | 0.03 | 0.00 | 81 | 1016.6 |
| 20260508004533 | 16 | 90 | 0.0 | 0.0 | 0.00 | 0.03 | 0.00 | 81 | 1016.6 |
| 20260508004253 | 16 | 90 | 0.0 | 0.0 | 0.00 | 0.03 | 0.00 | 81 | 1016.7 |
| 20260508003528 | 16 | 90 | 0.0 | 0.0 | 0.00 | 0.03 | 0.00 | 81 | 1016.9 |
| 20260508003029 | 16 | 90 | 0.0 | 1.6 | 0.00 | 0.03 | 0.00 | 81 | 1016.9 |
| 20260508002753 | 16 | 90 | 0.0 | 1.6 | 0.00 | 0.03 | 0.00 | 82 | 1016.7 |
| 20260508002022 | 16 | 90 | 0.0 | 0.0 | 0.00 | 0.03 | 0.00 | 82 | 1016.7 |
| 20260508001517 | 16 | 90 | 0.0 | 0.0 | 0.00 | 0.03 | 0.00 | 82 | 1016.9 |
| 20260508001011 | 16 | 90 | 0.0 | 0.0 | 0.00 | 0.03 | 0.00 | 82 | 1016.9 |
| 20260508000504 | 16 | 90 | 0.0 | 0.0 | 0.00 | 0.03 | 0.00 | 82 | 1017.0 |
| 20260507235958 | 16 | 90 | 0.0 | 0.0 | 0.00 | 0.03 | 0.00 | 82 | 1017.0 |
| 20260507235454 | 16 | 90 | 0.0 | 0.0 | 0.00 | 0.03 | 0.00 | 81 | 1017.0 |
| 20260507234946 | 16 | 90 | 0.0 | 0.0 | 0.00 | 0.03 | 0.00 | 81 | 1017.1 |
| 20260507234441 | 16 | 90 | 0.0 | 1.6 | 0.00 | 0.03 | 0.00 | 81 | 1017.1 |
| 20260507233935 | 16 | 90 | 0.0 | 1.6 | 0.00 | 0.03 | 0.00 | 81 | 1017.1 |
| 20260507233435 | 16 | 90 | 0.0 | 1.6 | 0.00 | 0.03 | 0.00 | 81 | 1017.1 |
| 20260507233202 | 17 | 90 | 0.0 | 1.6 | 0.00 | 0.03 | 0.00 | 81 | 1017.1 |
| 20260507232430 | 17 | 90 | 0.0 | 1.6 | 0.00 | 0.03 | 0.00 | 81 | 1017.2 |
| 20260507231929 | 17 | 90 | 0.0 | 1.6 | 0.00 | 0.03 | 0.00 | 81 | 1017.3 |
| 20260507231426 | 17 | 90 | 0.0 | 1.6 | 0.00 | 0.03 | 0.00 | 81 | 1017.3 |
| 20260507230927 | 16 | 90 | 0.0 | 0.0 | 0.00 | 0.03 | 0.00 | 81 | 1017.3 |
| 20260507230427 | 16 | 90 | 0.0 | 0.0 | 0.00 | 0.03 | 0.00 | 81 | 1017.4 |
| 20260507230145 | 17 | 90 | 0.0 | 0.0 | 0.00 | 0.03 | 0.00 | 81 | 1017.4 |
| 20260507225423 | 17 | 90 | 0.0 | 0.0 | 0.00 | 0.03 | 0.00 | 80 | 1017.5 |
| 20260507224922 | 17 | 90 | 0.0 | 0.0 | 0.00 | 0.03 | 0.00 | 80 | 1017.5 |
| 20260507224423 | 17 | 90 | 0.0 | 0.0 | 0.00 | 0.03 | 0.00 | 80 | 1017.6 |
| 20260507223920 | 17 | 90 | 0.0 | 0.0 | 0.00 | 0.03 | 0.00 | 80 | 1017.7 |
| 20260507223419 | 17 | 90 | 0.0 | 0.0 | 0.00 | 0.03 | 0.00 | 79 | 1017.8 |
| 20260507222919 | 17 | 90 | 0.0 | 0.0 | 0.00 | 0.03 | 0.00 | 79 | 1017.9 |
| 20260507222419 | 17 | 90 | 0.0 | 0.0 | 0.00 | 0.03 | 0.00 | 79 | 1017.9 |
| 20260507221917 | 17 | 90 | 0.0 | 0.0 | 0.00 | 0.03 | 0.00 | 79 | 1017.8 |
| 20260507221632 | 17 | 90 | 0.0 | 0.0 | 0.00 | 0.03 | 0.00 | 79 | 1017.8 |
| 20260507220913 | 17 | 90 | 0.0 | 0.0 | 0.00 | 0.03 | 0.00 | 79 | 1017.8 |
| 20260507220413 | 17 | 90 | 0.0 | 0.0 | 0.00 | 0.03 | 0.00 | 79 | 1017.7 |
| 20260507215913 | 17 | 90 | 0.0 | 0.0 | 0.00 | 0.03 | 0.00 | 78 | 1017.7 |
| 20260507215407 | 17 | 90 | 0.0 | 0.0 | 0.00 | 0.03 | 0.00 | 78 | 1017.7 |
| 20260507215121 | 17 | 90 | 0.0 | 0.0 | 0.00 | 0.03 | 0.00 | 78 | 1017.7 |
| 20260507214354 | 17 | 90 | 0.0 | 0.0 | 0.00 | 0.03 | 0.00 | 78 | 1017.6 |
| 20260507213854 | 17 | 90 | 0.0 | 0.0 | 0.00 | 0.03 | 0.00 | 78 | 1017.7 |
| 20260507213353 | 17 | 90 | 0.0 | 0.0 | 0.00 | 0.03 | 0.00 | 78 | 1017.6 |
| 20260507213113 | 17 | 90 | 0.0 | 0.0 | 0.00 | 0.03 | 0.00 | 78 | 1017.7 |
| 20260507212349 | 17 | 90 | 0.0 | 0.0 | 0.00 | 0.03 | 0.00 | 78 | 1017.7 |
| 20260507211849 | 17 | 90 | 0.0 | 0.0 | 0.00 | 0.03 | 0.00 | 77 | 1017.7 |
| 20260507211349 | 17 | 90 | 0.0 | 0.0 | 0.00 | 0.03 | 0.00 | 77 | 1017.8 |
| 20260507210849 | 17 | 90 | 0.0 | 0.0 | 0.00 | 0.03 | 0.00 | 77 | 1017.8 |
| 20260507210836 | 17 | 90 | 0.0 | 0.0 | 0.00 | 0.03 | 0.00 | 77 | 1017.7 |
| 20260507205847 | 17 | 90 | 0.0 | 0.0 | 0.00 | 0.03 | 0.03 | 76 | 1017.7 |
| 20260507205603 | 17 | 90 | 0.0 | 0.0 | 0.00 | 0.03 | 0.03 | 76 | 1017.6 |
| 20260507204845 | 17 | 90 | 0.0 | 0.0 | 0.00 | 0.03 | 0.03 | 75 | 1017.6 |
| 20260507204343 | 17 | 90 | 0.0 | 0.0 | 0.00 | 0.03 | 0.03 | 75 | 1017.6 |
| 20260507203840 | 18 | 90 | 0.0 | 0.0 | 0.00 | 0.03 | 0.03 | 75 | 1017.6 |
| 20260507203339 | 18 | 90 | 0.0 | 0.0 | 0.00 | 0.03 | 0.03 | 74 | 1017.5 |
| 20260507202837 | 18 | 90 | 0.0 | 3.2 | 0.00 | 0.03 | 0.03 | 74 | 1017.6 |
| 20260507202335 | 18 | 90 | 1.6 | 3.2 | 0.00 | 0.03 | 0.03 | 74 | 1017.5 |
| 20260507201833 | 18 | 90 | 1.6 | 4.8 | 0.00 | 0.03 | 0.03 | 74 | 1017.5 |
| 20260507201551 | 18 | 90 | 1.6 | 4.8 | 0.00 | 0.03 | 0.03 | 74 | 1017.5 |
| 20260507200831 | 18 | 90 | 0.0 | 3.2 | 0.00 | 0.03 | 0.03 | 74 | 1017.5 |
| 20260507200331 | 18 | 90 | 0.0 | 3.2 | 0.00 | 0.03 | 0.03 | 74 | 1017.6 |
| 20260507195829 | 18 | 90 | 0.0 | 3.2 | 0.00 | 0.03 | 0.03 | 74 | 1017.5 |
| 20260507195329 | 18 | 89 | 0.0 | 0.0 | 0.00 | 0.03 | 0.03 | 75 | 1017.5 |
| 20260507194829 | 18 | 89 | 0.0 | 0.0 | 0.00 | 0.03 | 0.03 | 75 | 1017.6 |
| 20260507194326 | 18 | 89 | 0.0 | 0.0 | 0.00 | 0.03 | 0.03 | 74 | 1017.7 |
| 20260507193825 | 18 | 89 | 0.0 | 0.0 | 0.00 | 0.03 | 0.03 | 74 | 1017.7 |
| 20260507193325 | 18 | 89 | 0.0 | 0.0 | 0.00 | 0.03 | 0.03 | 73 | 1017.6 |
| 20260507192825 | 18 | 89 | 0.0 | 0.0 | 0.00 | 0.03 | 0.03 | 73 | 1017.5 |
| 20260507192325 | 18 | 89 | 0.0 | 0.0 | 0.00 | 0.03 | 0.03 | 73 | 1017.5 |
| 20260507192039 | 18 | 89 | 0.0 | 0.0 | 0.00 | 0.03 | 0.03 | 72 | 1017.5 |
| 20260507191321 | 18 | 89 | 0.0 | 1.6 | 0.00 | 0.03 | 0.03 | 71 | 1017.6 |
| 20260507190815 | 18 | 89 | 0.0 | 3.2 | 0.00 | 0.03 | 0.03 | 70 | 1017.5 |
| 20260507190309 | 18 | 89 | 0.0 | 3.2 | 0.00 | 0.03 | 0.03 | 70 | 1017.6 |
| 20260507185806 | 18 | 89 | 0.0 | 0.0 | 0.00 | 0.03 | 0.03 | 70 | 1017.6 |
| 20260507185307 | 19 | 89 | 0.0 | 3.2 | 0.00 | 0.03 | 0.03 | 69 | 1017.6 |
| 20260507184805 | 19 | 89 | 1.6 | 4.8 | 0.00 | 0.03 | 0.03 | 69 | 1017.5 |
| 20260507184303 | 19 | 89 | 1.6 | 4.8 | 0.00 | 0.03 | 0.03 | 69 | 1017.4 |
| 20260507183803 | 19 | 71 | 0.0 | 3.2 | 0.00 | 0.03 | 0.03 | 68 | 1017.4 |
| 20260507183303 | 19 | 212 | 0.0 | 3.2 | 0.00 | 0.03 | 0.03 | 68 | 1017.4 |
| 20260507182803 | 19 | 212 | 0.0 | 1.6 | 0.00 | 0.03 | 0.03 | 68 | 1017.4 |
| 20260507182306 | 19 | 212 | 0.0 | 1.6 | 0.00 | 0.03 | 0.03 | 68 | 1017.3 |
| 20260507181803 | 19 | 212 | 0.0 | 1.6 | 0.00 | 0.03 | 0.03 | 68 | 1017.3 |
| 20260507181300 | 19 | 212 | 0.0 | 1.6 | 0.00 | 0.03 | 0.03 | 68 | 1017.2 |
| 20260507180801 | 19 | 212 | 0.0 | 1.6 | 0.00 | 0.03 | 0.03 | 68 | 1017.2 |
| 20260507180301 | 19 | 212 | 0.0 | 1.6 | 0.00 | 0.03 | 0.03 | 68 | 1017.1 |
| 20260507180020 | 19 | 212 | 0.0 | 1.6 | 0.00 | 0.03 | 0.03 | 68 | 1017.1 |
| 20260507175301 | 19 | 212 | 0.0 | 3.2 | 0.00 | 0.03 | 0.03 | 67 | 1017.1 |
| 20260507174757 | 19 | 212 | 1.6 | 3.2 | 0.00 | 0.03 | 0.03 | 67 | 1017.3 |
| 20260507174256 | 19 | 212 | 1.6 | 4.8 | 0.00 | 0.03 | 0.03 | 67 | 1017.2 |
| 20260507173757 | 19 | 212 | 1.6 | 4.8 | 0.00 | 0.03 | 0.03 | 67 | 1017.0 |
| 20260507173257 | 19 | 213 | 1.6 | 4.8 | 0.00 | 0.03 | 0.03 | 66 | 1017.0 |
| 20260507172756 | 19 | 105 | 1.6 | 6.4 | 0.00 | 0.03 | 0.03 | 66 | 1016.7 |
| 20260507172257 | 19 | 98 | 1.6 | 6.4 | 0.00 | 0.03 | 0.03 | 67 | 1016.4 |
| 20260507171756 | 19 | 90 | 1.6 | 6.4 | 0.00 | 0.03 | 0.03 | 67 | 1016.5 |
| 20260507171257 | 19 | 90 | 4.8 | 8.0 | 0.00 | 0.03 | 0.03 | 67 | 1016.6 |
| 20260507170757 | 20 | 103 | 3.2 | 8.0 | 0.00 | 0.03 | 0.03 | 68 | 1016.6 |
| 20260507170257 | 20 | 113 | 3.2 | 8.0 | 0.00 | 0.03 | 0.03 | 68 | 1016.9 |
| 20260507165756 | 20 | 105 | 3.2 | 8.0 | 0.00 | 0.03 | 0.03 | 68 | 1017.1 |
| 20260507165257 | 20 | 105 | 1.6 | 4.8 | 0.00 | 0.03 | 0.03 | 67 | 1017.2 |
| 20260507164756 | 20 | 205 | 1.6 | 4.8 | 0.00 | 0.03 | 0.03 | 67 | 1017.4 |
| 20260507164257 | 20 | 209 | 0.0 | 4.8 | 0.00 | 0.03 | 0.03 | 66 | 1017.4 |
| 20260507163757 | 20 | 167 | 0.0 | 3.2 | 0.00 | 0.03 | 0.03 | 66 | 1017.4 |
| 20260507163256 | 20 | 153 | 0.0 | 1.6 | 0.00 | 0.03 | 0.03 | 66 | 1017.3 |
| 20260507162756 | 20 | 153 | 0.0 | 0.0 | 0.00 | 0.03 | 0.03 | 66 | 1017.2 |
| 20260507162257 | 20 | 153 | 0.0 | 1.6 | 0.00 | 0.03 | 0.03 | 68 | 1017.3 |
| 20260507162235 | 20 | 153 | 0.0 | 3.2 | 0.00 | 0.03 | 0.03 | 68 | 1017.3 |
| 20260507161244 | 20 | 157 | 1.6 | 6.4 | 0.00 | 0.03 | 0.03 | 67 | 1017.3 |
| 20260507160738 | 20 | 151 | 3.2 | 8.0 | 0.00 | 0.03 | 0.03 | 68 | 1017.4 |
| 20260507160232 | 20 | 196 | 3.2 | 8.0 | 0.00 | 0.03 | 0.03 | 67 | 1017.4 |
| 20260507155726 | 20 | 115 | 1.6 | 8.0 | 0.00 | 0.03 | 0.03 | 67 | 1017.5 |
| 20260507155220 | 20 | 138 | 1.6 | 4.8 | 0.00 | 0.03 | 0.03 | 67 | 1017.3 |
| 20260507154714 | 20 | 130 | 1.6 | 4.8 | 0.00 | 0.03 | 0.03 | 65 | 1017.3 |
| 20260507154208 | 20 | 129 | 0.0 | 3.2 | 0.00 | 0.03 | 0.03 | 65 | 1017.3 |
| 20260507153922 | 20 | 130 | 1.6 | 3.2 | 0.00 | 0.03 | 0.03 | 66 | 1017.5 |
| 20260507153156 | 20 | 129 | 3.2 | 4.8 | 0.00 | 0.03 | 0.03 | 68 | 1017.5 |
| 20260507152651 | 20 | 189 | 1.6 | 4.8 | 0.00 | 0.03 | 0.03 | 67 | 1017.7 |
| 20260507152143 | 20 | 217 | 1.6 | 6.4 | 0.00 | 0.03 | 0.03 | 65 | 1017.6 |
| 20260507151638 | 20 | 204 | 1.6 | 6.4 | 0.00 | 0.03 | 0.03 | 65 | 1017.7 |
| 20260507151132 | 20 | 237 | 1.6 | 6.4 | 0.00 | 0.03 | 0.03 | 65 | 1017.6 |
| 20260507150626 | 20 | 244 | 1.6 | 6.4 | 0.00 | 0.03 | 0.03 | 65 | 1017.7 |
| 20260507150119 | 20 | 232 | 1.6 | 6.4 | 0.00 | 0.03 | 0.03 | 65 | 1017.6 |
| 20260507145614 | 20 | 246 | 3.2 | 8.0 | 0.00 | 0.03 | 0.03 | 65 | 1017.5 |
| 20260507145108 | 20 | 254 | 1.6 | 8.0 | 0.00 | 0.03 | 0.03 | 65 | 1017.5 |
| 20260507144601 | 20 | 210 | 1.6 | 4.8 | 0.00 | 0.03 | 0.03 | 65 | 1017.6 |
| 20260507144056 | 20 | 218 | 3.2 | 8.0 | 0.00 | 0.03 | 0.03 | 65 | 1017.7 |
| 20260507143550 | 20 | 264 | 3.2 | 9.7 | 0.00 | 0.03 | 0.03 | 64 | 1017.7 |
| 20260507143043 | 20 | 240 | 3.2 | 8.0 | 0.00 | 0.03 | 0.03 | 63 | 1017.6 |
| 20260507142538 | 20 | 257 | 4.8 | 8.0 | 0.00 | 0.03 | 0.03 | 64 | 1017.6 |
| 20260507142524 | 20 | 252 | 4.8 | 8.0 | 0.00 | 0.03 | 0.03 | 62 | 1017.6 |
| 20260507141525 | 20 | 259 | 6.4 | 8.0 | 0.00 | 0.03 | 0.03 | 61 | 1017.6 |
| 20260507141235 | 20 | 248 | 4.8 | 8.0 | 0.00 | 0.03 | 0.03 | 61 | 1017.5 |
| 20260507140511 | 21 | 266 | 4.8 | 8.0 | 0.00 | 0.03 | 0.03 | 61 | 1017.5 |
| 20260507140006 | 21 | 297 | 4.8 | 8.0 | 0.00 | 0.03 | 0.03 | 62 | 1017.4 |
| 20260507135500 | 20 | 283 | 4.8 | 9.7 | 0.00 | 0.03 | 0.03 | 63 | 1017.4 |
| 20260507134953 | 20 | 266 | 3.2 | 9.7 | 0.00 | 0.03 | 0.03 | 62 | 1017.4 |